GW0084 Weather Reports


time (UTC)temp
C
wind
direction
speed
KPH
gust
KPH
rain 1hr
cm
rain 24hr
cm
rain mn
cm
humidity
%
barometer
mb
20260906224601 30 251 8.0 22.5 0.00 0.00 0.00 22 1019.3
20260906223055 30 134 8.0 27.4 0.00 0.00 0.00 22 1019.3
20260906221554 30 306 8.0 16.1 0.00 0.00 0.00 22 1019.5
20260906220052 30 195 3.2 17.7 0.00 0.00 0.00 22 1019.7
20260906214601 30 176 6.4 22.5 0.00 0.00 0.00 23 1019.9
20260906213044 31 142 6.4 14.5 0.00 0.00 0.00 22 1020.2
20260906211553 30 256 11.3 25.7 0.00 0.00 0.00 22 1020.4
20260906210109 31 251 4.8 25.7 0.00 0.00 0.00 22 1020.6
20260906204555 31 265 4.8 19.3 0.00 0.00 0.00 22 1021.2
20260906203050 31 163 6.4 19.3 0.00 0.00 0.00 21 1021.4
20260906201552 31 167 9.7 16.1 0.00 0.00 0.00 21 1021.5
20260906200046 32 263 1.6 17.7 0.00 0.00 0.00 21 1021.7
20260906194552 31 161 8.0 19.3 0.00 0.00 0.00 21 1021.8
20260906193051 31 241 3.2 16.1 0.00 0.00 0.00 22 1021.9
20260906191549 30 84 8.0 16.1 0.00 0.00 0.00 23 1022.1
20260906190053 30 100 8.0 12.9 0.00 0.00 0.00 24 1022.3
20260906184621 30 218 4.8 16.1 0.00 0.00 0.00 23 1022.5
20260906183053 30 125 3.2 17.7 0.00 0.00 0.00 24 1022.9
20260906181551 28 159 4.8 17.7 0.00 0.00 0.00 26 1023.2
20260906180056 28 226 4.8 16.1 0.00 0.00 0.00 26 1023.3
20260906174552 28 186 8.0 20.9 0.00 0.00 0.00 28 1023.6
20260906173058 27 151 3.2 9.7 0.00 0.00 0.00 30 1023.6
20260906171550 26 128 1.6 14.5 0.00 0.00 0.00 31 1023.7
20260906170054 25 141 1.6 14.5 0.00 0.00 0.00 33 1023.7
20260906164551 25 151 3.2 12.9 0.00 0.00 0.00 34 1023.9
20260906163051 24 86 6.4 14.5 0.00 0.00 0.00 34 1024.0
20260906161550 23 263 3.2 12.9 0.00 0.00 0.00 37 1023.9
20260906160046 22 95 0.0 8.0 0.00 0.00 0.00 39 1023.9
20260906154555 21 155 1.6 9.7 0.00 0.00 0.00 43 1023.9
20260906153053 20 115 0.0 4.8 0.00 0.00 0.00 46 1023.9
20260906151552 18 0 1.6 4.8 0.00 0.00 0.00 47 1023.9
20260906150057 18 0 0.0 6.4 0.00 0.00 0.00 48 1023.9
20260906144553 17 145 0.0 3.2 0.00 0.00 0.00 49 1023.8
20260906143050 17 0 1.6 4.8 0.00 0.00 0.00 51 1023.7
20260906141550 16 0 0.0 3.2 0.00 0.00 0.00 53 1023.5
20260906140051 16 0 0.0 1.6 0.00 0.00 0.00 53 1023.4
20260906134545 16 0 0.0 1.6 0.00 0.00 0.00 50 1023.3
20260906133056 16 0 0.0 1.6 0.00 0.00 0.00 50 1023.2
20260906131550 16 0 0.0 4.8 0.00 0.00 0.00 49 1023.0
20260906130057 17 346 0.0 4.8 0.00 0.00 0.00 49 1022.8
20260906124547 17 0 0.0 1.6 0.00 0.00 0.00 47 1022.7
20260906123054 17 0 0.0 3.2 0.00 0.00 0.00 47 1022.7
20260906121604 17 271 0.0 4.8 0.00 0.00 0.00 48 1022.7
20260906120104 17 0 0.0 3.2 0.00 0.00 0.00 50 1022.7
20260906114544 16 0 0.0 3.2 0.00 0.00 0.00 51 1022.8
20260906113056 16 53 0.0 3.2 0.00 0.00 0.00 53 1022.7
20260906111549 16 30 0.0 1.6 0.00 0.00 0.00 54 1022.6
20260906110049 16 0 0.0 3.2 0.00 0.00 0.00 54 1022.6
20260906104545 16 57 1.6 3.2 0.00 0.00 0.00 53 1022.6
20260906103052 17 0 0.0 1.6 0.00 0.00 0.00 52 1022.7
20260906101553 17 0 0.0 0.0 0.00 0.00 0.00 50 1022.5
20260906100049 18 360 0.0 3.2 0.00 0.00 0.00 50 1022.4
20260906094544 18 0 0.0 1.6 0.00 0.00 0.00 48 1022.4
20260906093052 19 0 0.0 1.6 0.00 0.00 0.00 45 1022.3
20260906091549 20 0 0.0 1.6 0.00 0.00 0.00 44 1022.2
20260906090052 20 0 0.0 4.8 0.00 0.00 0.00 41 1022.2
20260906084556 20 350 0.0 9.7 0.00 0.00 0.00 40 1022.2
20260906083044 20 329 0.0 4.8 0.00 0.00 0.00 41 1022.3
20260906081553 20 23 1.6 6.4 0.00 0.00 0.00 42 1022.4
20260906080052 20 0 1.6 4.8 0.00 0.00 0.00 44 1022.5
20260906074550 20 52 0.0 4.8 0.00 0.00 0.00 44 1022.5
20260906073043 20 346 1.6 4.8 0.00 0.00 0.00 44 1022.7
20260906071553 20 40 1.6 6.4 0.00 0.00 0.00 44 1022.8
20260906070051 20 223 0.0 4.8 0.00 0.00 0.00 45 1022.8
20260906064549 20 0 1.6 3.2 0.00 0.00 0.00 46 1022.9
20260906063056 20 0 0.0 3.2 0.00 0.00 0.00 45 1023.0
20260906061601 20 320 0.0 3.2 0.00 0.00 0.00 44 1022.9
20260906060057 20 36 0.0 3.2 0.00 0.00 0.00 44 1022.9
20260906054549 20 0 0.0 3.2 0.00 0.00 0.00 44 1022.8
20260906053044 20 0 0.0 3.2 0.00 0.00 0.00 43 1022.7
20260906051606 21 5 0.0 3.2 0.00 0.00 0.00 42 1022.7
20260906050049 21 0 0.0 1.6 0.00 0.00 0.00 42 1022.5
20260906044546 21 0 0.0 1.6 0.00 0.00 0.00 42 1022.4
20260906043042 22 0 0.0 1.6 0.00 0.00 0.00 40 1022.4
20260906041544 22 0 0.0 3.2 0.00 0.00 0.00 39 1022.4
20260906040052 22 0 0.0 6.4 0.00 0.00 0.00 38 1022.1
20260906034550 22 308 0.0 4.8 0.00 0.00 0.00 38 1021.8
20260906033056 23 222 0.0 6.4 0.00 0.00 0.00 37 1021.6
20260906031550 23 0 0.0 4.8 0.00 0.00 0.00 37 1021.5
20260906030050 23 259 0.0 3.2 0.00 0.00 0.00 37 1021.3
20260906024545 23 0 0.0 6.4 0.00 0.00 0.00 36 1021.1
20260906023050 23 0 0.0 3.2 0.00 0.00 0.00 36 1020.9
20260906021551 24 0 0.0 3.2 0.00 0.00 0.00 36 1020.9
20260906020049 25 0 0.0 3.2 0.00 0.00 0.00 36 1020.9
20260906014604 25 0 0.0 1.6 0.00 0.00 0.00 37 1020.8
20260906013054 26 0 0.0 1.6 0.00 0.00 0.00 37 1020.6
20260906011554 27 0 0.0 0.0 0.00 0.00 0.00 36 1020.7
20260906004552 27 0 0.0 0.0 0.00 0.00 0.00 35 1020.6
20260906003050 27 0 0.0 0.0 0.00 0.00 0.00 37 1020.6
20260906001549 27 0 0.0 1.6 0.00 0.00 0.00 36 1020.7
20260906000057 28 80 0.0 4.8 0.00 0.00 0.00 36 1020.6
20260905234555 27 0 0.0 4.8 0.00 0.00 0.00 37 1020.6
20260905233051 27 0 0.0 3.2 0.00 0.00 0.00 39 1020.6
20260905231548 27 0 0.0 1.6 0.00 0.00 0.00 40 1020.6
20260905230104 26 0 0.0 1.6 0.00 0.00 0.00 40 1020.6